Regional Weather Roundup
Issued by NWS

Home | Current Version | Previous Version | Graphics & Text | Print | Product List | Glossary On
Versions: 1 2 3 4 5 6 7 8 9 10 11 12 13 14 15 16 17 18 19 20 21 22 23 24 25 26 27 28 29 30 31 32 33 34 35 36 37 38 39 40 41 42 43 44 45 46 47 48 49 50
000
ASUS43 KFSD 301302
RWRSD

WEATHER ROUNDUP FOR SOUTH DAKOTA
NATIONAL WEATHER SERVICE SIOUX FALLS SD
800 AM CDT TUE AUG 30 2016

NOTE: "FAIR" INDICATES FEW OR NO CLOUDS BELOW 12,000 FEET WITH NO
SIGNIFICANT WEATHER AND/OR OBSTRUCTIONS TO VISIBILITY.


SDZ001>005-009-010-012>017-301400-
NORTHWEST AND NORTH CENTRAL SOUTH DAKOTA

CITY           SKY/WX    TMP DP  RH WIND       PRES   REMARKS
BUFFALO          N/A     64  59  83 SE8       30.19S
FAITH            N/A     61  54  77 E13       30.24S
MOBRIDGE       CLEAR     59  49  69 E10       30.23R
$$

SDZ012>016-024>037-041>051-057-063-072>074-301400-
SOUTHWEST AND SOUTH CENTRAL SOUTH DAKOTA

CITY           SKY/WX    TMP DP  RH WIND       PRES   REMARKS
RAPID CTY ARPT CLOUDY    63  62  97 CALM      30.25S FOG
PIERRE         MOCLDY    65  61  87 E15       30.19S
CUSTER         CLEAR     54  52  93 NW3       30.37S
ELLSWORTH AFB  FOG       62  62 100 S6        30.25  VSB 5/8
PHILIP         CLEAR     62  60  93 N6        30.22R
PINE RIDGE     CLOUDY    53  53 100 CALM      30.26R
WINNER         FAIR      68  63  84 SW5       30.20R
$$

SDZ004>011-016>023-039-040-301400-
NORTHEAST SOUTH DAKOTA

CITY           SKY/WX    TMP DP  RH WIND       PRES   REMARKS
ABERDEEN       SUNNY     56  51  84 N6        30.24S
WATERTOWN      SUNNY     61  58  90 CALM      30.24R
SISSETON         N/A     60  57  89 NW3       30.24R
$$

SDZ017-020-022-023-036>040-048>070-301400-
SOUTHEAST SOUTH DAKOTA

CITY           SKY/WX    TMP DP  RH WIND       PRES   REMARKS
SIOUX FALLS    CLOUDY    71  68  90 E3        30.20S
HURON          MOSUNNY   68  64  87 E6        30.20R
CHAMBERLAIN    MOSUNNY   68  68 100 E3        30.20R
MITCHELL       MOSUNNY   67  65  93 SE3       30.20R
YANKTON        CLOUDY    66  63  88 E6        30.19S
$$

ABBREVIATIONS USED IN REMARKS
   TC - TEMPERATURE IN CELSIUS
  WCI - WIND CHILL INDEX
   HX - HEAT INDEX
  VSB - VISIBILITY





USA.gov is the U.S. government's official web portal to all federal, state and local government web resources and services.